Hourly Data Report for August 22, 2021

ALGONQUIN PARK EAST GATE
ONTARIO
Current Station Operator: ECCC - MSC

45°32'00.000" N
78°16'00.000" W
397.00 m
6080192
71581
TNK

Download Data

Hourly Data (August 2021)
Hourly Data Report for August 22, 2021
TIME
LST
Temp Definition
°C
Dew Point Definition
°C
Rel Hum Definition
%
Precip. Amount Definition
mm

Wind Dir Definition
10's deg

Wind Spd Definition
km/h
Visibility Definition
km
Stn Press Definition
kPa
Hmdx Definition


Wind Chill Definition


Weather Definition


00:00 19.9 19.4 97 0.0 0 1   96.66     LegendNANA
01:00 19.5 19.1 97 0.0 0 1   96.66     LegendNANA
02:00 18.9 18.4 97 0.0   0   96.64     LegendNANA
03:00 18.4 18.1 98 0.0   0   96.63     LegendNANA
04:00 18.2 17.9 98 0.0   0   96.66     LegendNANA
05:00 17.9 17.5 97 0.0 0 1   96.70     LegendNANA
06:00 18.4 18.1 98 0.0 9 2   96.74     LegendNANA
07:00 19.3 19.0 98 0.0 0 1   96.77     LegendNANA
08:00 21.7 20.6 93 0.0 0 1   96.77 30   LegendNANA
09:00 22.8 21.2 90 0.0 24 3   96.80 31   LegendNANA
10:00 24.7 20.8 79 0.0 35 3   96.79 33   LegendNANA
11:00 25.1 21.0 78 0.0 1 3   96.78 34   LegendNANA
12:00 26.4 20.8 71 0.0 1 4   96.75 35   LegendNANA
13:00 27.0 20.3 66 0.0 7 4   96.73 35   LegendNANA
14:00 27.0 20.1 66 0.0 5 2   96.72 35   LegendNANA
15:00 27.6 20.3 64 0.0 9 4   96.68 35   LegendNANA
16:00 27.3 20.1 65 0.0 4 3   96.68 35   LegendNANA
17:00 26.5 19.9 67 0.0 4 2   96.67 34   LegendNANA
18:00 25.6 20.5 74 0.0 0 1   96.68 34   LegendNANA
19:00 23.6 21.1 86 0.0   0   96.69 32   LegendNANA
20:00 22.4 20.8 91 0.0   0   96.70 31   LegendNANA
21:00 21.1 20.2 94 0.0   0   96.68 29   LegendNANA
22:00 20.4 19.6 96 0.0   0   96.68 28   LegendNANA
23:00 20.1 19.7 97 0.0 13 1   96.69 27   LegendNANA

Notes on Data Quality.

Legend

  • E = Estimated
  • M = Missing
  • NA = Not Available*
  • [empty] = Indicates an unobserved value
Date modified: